Location: *
(32.8667°N, 13.1833°E)
Time: 19:50:38
(UTC+00:00)

Meteor 2-10 Rocket - Pass Details

Date: 18 July 2019
Orbit: 735 x 884 km, 81.2° (Epoch: 24 August)

Event Time Altitude Azimuth Distance (km) Brightness Sun altitude
Rises 18:34:32 0° 356° (N) 3,354 7.3 -4.4°
Reaches altitude 10° 18:36:56 10° 360° (N) 2,440 6.5 -4.9°
Maximum altitude 18:42:26 62° 81° (E) 954 3.8 -5.9°
Drops below altitude 10° 18:48:05 10° 161° (SSE) 2,509 5.7 -6.9°
Sets 18:50:34 0° 165° (SSE) 3,455 6.4 -7.4°
